Home > Weather > Gothenburg > Past weeks

Flag for Sweden Weather for the Past 2 Weeks in Gothenburg, Sweden

Now
41 °F

Light rain. Partly cloudy.


Feels Like: 32 °F
Forecast: 39 / 42 °F
Wind: 17 mph from South

Location: Gothenburg / Save

Current Time: Feb 9, 2016 at 12:45:57 AM

Latest Report: Feb 8, 2016 at 11:50 PM


Visibility: N/A

Pressure: 28.88 "Hg

Humidity: 93%

Dew point: 39 °F

Location of GothenburgLocation

Historic Weather in Gothenburg — Graph

°F

Gothenburg Temperature Yesterday

Maximum temperature yesterday: 43 °F (at 4:20 AM)
Minimum temperature yesterday: 37 °F (at 11:20 AM)
Average temperature yesterday: 41 °F

High & Low Weather Summary for the Past Weeks

 TemperatureHumidityPressure
High46 °F (Jan 29, 4:50 PM)100% (Jan 24, 11:50 PM)30.04 "Hg (Jan 24, 11:50 PM)
Low23 °F (Feb 4, 10:50 PM)56% (Feb 4, 11:20 AM)28.88 "Hg (Feb 8, 10:50 PM)
Average39 °F86%29.48 "Hg
* Reported Jan 24 11:50 PM — Feb 8 11:20 PM, Gothenburg, Weather by CustomWeather, © 2016

Note: Actual official high and low records may vary slightly from our data, if they occured in-between our weather recording intervals... More about our weather records

Advertising

Gothenburg Weather History for the Previous 24 Hours

 ConditionsComfort  
Time TempWeatherWind HumidityBarometerVisibility
11:20 PM
Mon, Feb 8
41 °FOvercast.22 mph87%28.88 "HgN/A
10:50 PM41 °FMostly cloudy.22 mph87%28.88 "HgN/A
10:20 PM41 °FMostly cloudy.20 mph87%28.91 "HgN/A
9:50 PM41 °FPartly cloudy.18 mph87%28.91 "HgN/A
9:20 PM41 °FDrizzle. Mostly cloudy.18 mph87%28.91 "HgN/A
8:50 PM41 °FOvercast.20 mph87%28.91 "HgN/A
8:20 PM41 °FOvercast.20 mph87%28.91 "HgN/A
7:50 PM41 °FMostly cloudy.21 mph87%28.91 "HgN/A
7:20 PM41 °FOvercast.20 mph87%28.91 "HgN/A
6:50 PM41 °FPassing clouds.18 mph87%28.91 "HgN/A
6:20 PM41 °FPassing clouds.17 mph87%28.91 "HgN/A
5:50 PM41 °FPassing clouds.22 mph87%28.91 "HgN/A
5:20 PM41 °FPassing clouds.22 mph93%28.91 "HgN/A
4:50 PM41 °FFog.21 mph93%28.91 "Hg6 mi
4:20 PM41 °FCloudy.22 mph93%28.91 "HgN/A
3:50 PM43 °FPartly sunny.25 mph87%28.91 "HgN/A
3:20 PM43 °FLight rain. Partly sunny.28 mph87%28.91 "Hg4 mi
2:50 PM43 °FRain. Mostly cloudy.25 mph87%28.91 "Hg4 mi
2:20 PM43 °FMostly cloudy.25 mph87%28.91 "HgN/A
1:50 PM43 °FMostly cloudy.22 mph87%28.94 "HgN/A
1:20 PM41 °FPartly sunny.24 mph93%28.94 "HgN/A
12:50 PM41 °FLow clouds.23 mph87%28.97 "HgN/A
12:20 PM41 °FMostly cloudy.26 mph87%28.97 "HgN/A
11:50 AM39 °FLight rain. Mostly cloudy.23 mph93%28.97 "Hg6 mi
11:20 AM37 °FRain. Mostly cloudy.22 mph93%28.97 "Hg2 mi
10:50 AM39 °FLight rain. Mostly cloudy.26 mph87%29.00 "Hg3 mi
10:20 AM39 °FLight rain. Partly sunny.24 mph87%29.00 "HgN/A
9:50 AM39 °FLight rain. Mostly cloudy.23 mph87%29.00 "Hg4 mi
9:20 AM39 °FLight rain. Partly sunny.23 mph87%29.03 "Hg2 mi
8:50 AM39 °FLight rain. Overcast.28 mph87%29.06 "Hg2 mi
8:20 AM41 °FLight rain. Passing clouds.28 mph76%29.06 "HgN/A
7:50 AM41 °FPassing clouds.22 mph76%29.06 "HgN/A
7:20 AM41 °FPassing clouds.23 mph76%29.09 "HgN/A
6:50 AM41 °FPassing clouds.23 mph76%29.12 "HgN/A
6:20 AM41 °FPassing clouds.24 mph81%29.12 "HgN/A
5:50 AM41 °FPassing clouds.24 mph81%29.15 "HgN/A
5:20 AM41 °FOvercast.22 mph81%29.15 "HgN/A
4:20 AM43 °FOvercast.24 mph76%29.21 "HgN/A
3:50 AM41 °FOvercast.23 mph87%29.21 "HgN/A
3:20 AM41 °FMostly cloudy.22 mph87%29.24 "HgN/A
2:50 AM41 °FOvercast.22 mph87%29.24 "HgN/A
2:20 AM41 °FOvercast.22 mph87%29.24 "HgN/A
1:50 AM41 °FPassing clouds.21 mph87%29.27 "HgN/A
1:20 AM41 °FMostly cloudy.20 mph87%29.27 "HgN/A
12:50 AM41 °FMostly cloudy.18 mph87%29.27 "HgN/A
12:20 AM41 °FMostly cloudy.20 mph87%29.27 "HgN/A
Weather by CustomWeather, © 2016

See weather overviewHow to use our weather pages